Location: Newark
(20.1200°S, 168.9600°E)
Time: 00:17:29
(UTC+00:00)

Hubble Space Telescope - Pass Details

Date: 30 November 2019
Orbit: 536 x 540 km, 28.5° (Epoch: 06 December)

Event Time Altitude Azimuth Distance (km) Brightness Sun altitude
Exits shadow 15:17:52 21° 152° (SSE) 1,243 3.2 -31.9°
Drops below altitude 10° 15:19:59 10° 125° (SE) 1,802 4.3 -31.6°
Sets 15:22:34 0° 112° (ESE) 2,693 5.3 -31.1°
